Home > Weather > Guadalajara > Past weeks

Flag for Mexico Past Weather in Guadalajara, Jalisco, Mexico — Yesterday and Last 2 Weeks

Now
81 °F

Clear.


Feels Like: 79 °F
Forecast: 65 / 93 °F
Wind: 10 mph from West

Location: Don Miguel / Guadalaj

Current Time: May 25, 2016 at 11:45:16 PM

Latest Report: May 25, 2016 at 9:51 PM


Visibility: 8 mi

Pressure: 29.78 "Hg (24.99 "Hg at 1543m altitude)

Humidity: 28%

Dew Point: 45 °F

Location of GuadalajaraLocation

Past Weather in Guadalajara — Graph

°F

Guadalajara Temperature Yesterday

Maximum temperature yesterday: 93 °F (at 3:46 PM)
Minimum temperature yesterday: 61 °F (at 7:52 AM)
Average temperature yesterday: 79 °F

High & Low Weather Summary for the Past Weeks

 TemperatureHumidityPressure
High95 °F (May 25, 3:49 PM)83% (May 13, 5:48 AM)30.28 "Hg (May 13, 5:48 AM)
Low55 °F (May 19, 6:49 AM)8% (May 22, 2:47 PM)29.65 "Hg (May 11, 3:49 PM)
Average77 °F38%30.04 "Hg
* Reported May 10 10:53 PM — May 25 9:51 PM, Guadalajara, Weather by CustomWeather, © 2016

Note: Actual official high and low records may vary slightly from our data, if they occured in-between our weather recording intervals... More about our weather records

Advertising

Guadalajara Weather History for the Previous 24 Hours

Scroll right to see more
 ConditionsComfort  
Time TempWeatherWind HumidityBarometerVisibility
9:51 PM
Wed, May 25
81 °FClear.10 mph28%29.78 "Hg8 mi
8:48 PM84 °FSunny.13 mph23%30.15 "Hg8 mi
7:45 PM90 °FScattered clouds.13 mph13%30.12 "Hg8 mi
6:50 PM93 °FPassing clouds.14 mph12%29.71 "Hg7 mi
5:47 PM95 °FScattered clouds.5 mph11%30.13 "Hg7 mi
4:45 PM95 °FPassing clouds.7 mph11%30.13 "Hg7 mi
3:49 PM95 °FSunny.5 mph11%29.70 "Hg7 mi
2:49 PM93 °FSunny.7 mph12%30.20 "Hg7 mi
1:52 PM90 °FSunny.14 mph12%30.22 "Hg10 mi
12:49 PM90 °FSunny.10 mph13%29.81 "Hg7 mi
11:50 AM86 °FSunny.No wind22%30.26 "Hg6 mi
10:54 AM82 °FSunny.8 mph28%30.28 "Hg7 mi
9:51 AM77 °FSunny.No wind34%29.86 "Hg7 mi
8:51 AM72 °FSunny.No wind44%30.28 "Hg7 mi
7:51 AM66 °FPassing clouds.No wind52%30.27 "Hg8 mi
3:46 AM68 °FClear.No wind49%29.78 "Hg10 mi
Weather by CustomWeather, © 2016

See weather overviewHow to use our weather pages